Time,TemperatureF,DewpointF,PressureIn,WindDirection,WindDirectionDegrees,WindSpeedMPH,WindSpeedGustMPH,Humidity,HourlyPrecipIn,Conditions,Clouds,dailyrainin,SoftwareType,DateUTC
2013-10-15 00:13:00,43.0,42.0,-100.00,SSW,202,3.0,7.0,98,0.31,,,0.49,,2013-10-15 05:13:00,
2013-10-15 00:22:00,43.0,42.0,-100.00,SSW,202,3.0,7.0,98,0.31,,,0.49,,2013-10-15 05:22:00,
2013-10-15 00:34:00,43.0,42.0,-100.00,SSW,202,3.0,7.0,98,0.31,,,0.49,,2013-10-15 05:34:00,
2013-10-15 01:12:00,43.0,42.0,-100.00,SE,125,2.0,8.0,97,0.08,,,0.57,,2013-10-15 06:12:00,
2013-10-15 01:22:00,43.0,42.0,-100.00,SE,125,2.0,8.0,97,0.08,,,0.57,,2013-10-15 06:22:00,
2013-10-15 01:32:00,43.0,42.0,-100.00,SE,125,2.0,8.0,97,0.08,,,0.57,,2013-10-15 06:32:00,
2013-10-15 02:12:00,42.0,41.0,-100.00,SSW,200,2.0,5.0,97,0.04,,,0.61,,2013-10-15 07:12:00,
2013-10-15 02:22:00,42.0,41.0,-100.00,SSW,200,2.0,5.0,97,0.04,,,0.61,,2013-10-15 07:22:00,
2013-10-15 02:32:00,42.0,41.0,-100.00,SSW,200,2.0,5.0,97,0.04,,,0.61,,2013-10-15 07:32:00,
2013-10-15 04:12:00,42.0,41.0,-100.00,ESE,108,3.0,8.0,96,-99.99,,,0.62,,2013-10-15 09:12:00,
2013-10-15 04:22:00,42.0,41.0,-100.00,ESE,108,3.0,8.0,96,-99.99,,,0.62,,2013-10-15 09:22:00,
2013-10-15 04:33:00,42.0,41.0,-100.00,ESE,108,3.0,8.0,96,-99.99,,,0.62,,2013-10-15 09:33:00,
2013-10-15 05:13:00,42.0,41.0,-100.00,SSE,153,2.0,6.0,96,0.02,,,0.64,,2013-10-15 10:13:00,
2013-10-15 05:23:00,42.0,41.0,-100.00,SSE,153,2.0,6.0,96,0.02,,,0.64,,2013-10-15 10:23:00,
2013-10-15 05:32:00,42.0,41.0,-100.00,SSE,153,2.0,6.0,96,0.02,,,0.64,,2013-10-15 10:32:00,
2013-10-15 06:11:00,42.0,41.0,-100.00,SSW,198,2.0,11.0,96,0.03,,,0.67,,2013-10-15 11:11:00,
2013-10-15 06:22:00,42.0,41.0,-100.00,SSW,198,2.0,11.0,96,0.03,,,0.67,,2013-10-15 11:22:00,
2013-10-15 06:33:00,42.0,41.0,-100.00,SSW,198,2.0,11.0,96,0.03,,,0.67,,2013-10-15 11:33:00,
2013-10-15 07:12:00,42.0,41.0,-100.00,SW,235,2.0,7.0,96,0.00,,,0.67,,2013-10-15 12:12:00,
2013-10-15 07:22:00,42.0,41.0,-100.00,SW,235,2.0,7.0,96,0.00,,,0.67,,2013-10-15 12:22:00,
2013-10-15 07:32:00,42.0,41.0,-100.00,SW,235,2.0,7.0,96,0.00,,,0.67,,2013-10-15 12:32:00,
2013-10-15 08:11:00,42.0,41.0,-100.00,South,186,3.0,7.0,96,0.01,,,0.68,,2013-10-15 13:11:00,
2013-10-15 08:21:00,42.0,41.0,-100.00,South,186,3.0,7.0,96,0.01,,,0.68,,2013-10-15 13:21:00,
2013-10-15 08:32:00,42.0,41.0,-100.00,South,186,3.0,7.0,96,0.01,,,0.68,,2013-10-15 13:32:00,
2013-10-15 10:11:00,42.0,41.0,-100.00,NNW,343,2.0,7.0,95,-99.99,,,-99.99,,2013-10-15 15:11:00,
2013-10-15 10:22:00,42.0,41.0,-100.00,NNW,343,2.0,7.0,95,-99.99,,,-99.99,,2013-10-15 15:22:00,
2013-10-15 10:33:00,42.0,41.0,-100.00,NNW,343,2.0,7.0,95,-99.99,,,-99.99,,2013-10-15 15:33:00,
2013-10-15 11:13:00,42.0,41.0,-100.00,SSW,196,2.0,6.0,96,0.04,,,0.73,,2013-10-15 16:13:00,
2013-10-15 11:23:00,42.0,41.0,-100.00,SSW,196,2.0,6.0,96,0.04,,,0.73,,2013-10-15 16:23:00,
2013-10-15 11:33:00,42.0,41.0,-100.00,SSW,196,2.0,6.0,96,0.04,,,0.73,,2013-10-15 16:33:00,
2013-10-15 12:12:00,42.0,41.0,-100.00,WSW,250,2.0,6.0,96,0.01,,,0.74,,2013-10-15 17:12:00,
2013-10-15 12:22:00,42.0,41.0,-100.00,WSW,250,2.0,6.0,96,0.01,,,0.74,,2013-10-15 17:22:00,
2013-10-15 12:33:00,42.0,41.0,-100.00,WSW,250,2.0,6.0,96,0.01,,,0.74,,2013-10-15 17:33:00,
2013-10-15 13:12:00,42.0,41.0,-100.00,NW,305,3.0,9.0,95,0.09,,,0.83,,2013-10-15 18:12:00,
2013-10-15 13:22:00,42.0,41.0,-100.00,NW,305,3.0,9.0,95,0.09,,,0.83,,2013-10-15 18:22:00,
2013-10-15 13:32:00,42.0,41.0,-100.00,NW,305,3.0,9.0,95,0.09,,,0.83,,2013-10-15 18:32:00,
2013-10-15 14:12:00,43.0,41.0,-100.00,WNW,282,3.0,6.0,94,0.02,,,0.85,,2013-10-15 19:12:00,
2013-10-15 14:22:00,43.0,41.0,-100.00,WNW,282,3.0,6.0,94,0.02,,,0.85,,2013-10-15 19:22:00,
2013-10-15 14:32:00,43.0,41.0,-100.00,WNW,282,3.0,6.0,94,0.02,,,0.85,,2013-10-15 19:32:00,
2013-10-15 16:13:00,42.0,41.0,-100.00,NNW,332,4.0,10.0,95,-99.99,,,0.90,,2013-10-15 21:13:00,
2013-10-15 16:22:00,42.0,41.0,-100.00,NNW,332,4.0,10.0,95,-99.99,,,0.90,,2013-10-15 21:22:00,
2013-10-15 16:34:00,42.0,41.0,-100.00,NNW,332,4.0,10.0,95,-99.99,,,0.90,,2013-10-15 21:34:00,
2013-10-15 17:13:00,42.0,41.0,-100.00,North,354,5.0,12.0,95,0.04,,,0.94,,2013-10-15 22:13:00,
2013-10-15 17:23:00,42.0,41.0,-100.00,North,354,5.0,12.0,95,0.04,,,0.94,,2013-10-15 22:23:00,
2013-10-15 17:33:00,42.0,41.0,-100.00,North,354,5.0,12.0,95,0.04,,,0.94,,2013-10-15 22:33:00,
2013-10-15 18:12:00,42.0,41.0,-100.00,NW,322,3.0,9.0,95,0.02,,,0.96,,2013-10-15 23:12:00,
2013-10-15 18:22:00,42.0,41.0,-100.00,NW,322,3.0,9.0,95,0.02,,,0.96,,2013-10-15 23:22:00,
2013-10-15 18:34:00,42.0,41.0,-100.00,NW,322,3.0,9.0,95,0.02,,,0.96,,2013-10-15 23:34:00,
2013-10-15 20:11:00,42.0,41.0,-100.00,WNW,290,2.0,8.0,95,-99.99,,,0.91,,2013-10-16 01:11:00,
2013-10-15 20:22:00,42.0,41.0,-100.00,WNW,290,2.0,8.0,95,-99.99,,,0.91,,2013-10-16 01:22:00,
2013-10-15 20:32:00,42.0,41.0,-100.00,WNW,290,2.0,8.0,95,-99.99,,,0.91,,2013-10-16 01:32:00,
2013-10-15 21:12:00,42.0,40.0,-100.00,WNW,289,2.0,6.0,93,0.00,,,0.85,,2013-10-16 02:12:00,
2013-10-15 21:22:00,42.0,40.0,-100.00,WNW,289,2.0,6.0,93,0.00,,,0.85,,2013-10-16 02:22:00,
2013-10-15 21:32:00,42.0,40.0,-100.00,WNW,289,2.0,6.0,93,0.00,,,0.85,,2013-10-16 02:32:00,
2013-10-15 22:11:00,42.0,40.0,-100.00,NNW,339,3.0,8.0,93,0.00,,,-99.99,,2013-10-16 03:11:00,
2013-10-15 22:22:00,42.0,40.0,-100.00,NNW,339,3.0,8.0,93,0.00,,,-99.99,,2013-10-16 03:22:00,
2013-10-15 22:34:00,42.0,40.0,-100.00,NNW,339,3.0,8.0,93,0.00,,,-99.99,,2013-10-16 03:34:00,